SCP
0 0 0 0 0 0 0 0 0 0 0 0 0 0 0 0 0 0 0 0 0 0 0 0 0 0 0 0 0 0 0 0 0 0 1 1 1 1
0 0 0 0 0 0 0 0 0 0 0 0 0 0 0 0 0 0 0 0 0 0 0 0 0 0 0 0 0 0 0 0 0 0 0 1 1 1
0 0 0 0 0 0 0 0 0 0 0 0 0 0 0 0 0 0 0 0 0 0 0 0 0 0 0 0 0 0 0 0 0 0 0 0 0 0
0 0 0 0 0 0 0 0 0 0 0 0 0 0 0 0 0 0 0 0 0 0 0 0 0 0 0 0 1 1 0 0 0 0 0 0 0 0
0 0 0 0 0 0 0 0 0 0 0 0 0 0 0 0 0 0 0 0 0 0 0 0 0 0 0 0 0 0 0 0 0 0 0 0 0 0
0 0 0 0 0 0 0 0 0 0 0 0 0 0 0 0 0 0 0 0 0 0 0 0 0 0 0 0 0 0 0 0 0 0 0 0 0 0
0 0 0 0 0 0 0 0 0 0 0 0 0 0 0 0 0 0 0 0 0 0 0 0 0 0 0 0 0 0 0 0 0 0 0 0 0 0
0 0 0 0 0 0 0 0 0 0 0 0 0 0 0 0 0 0 0 0 0 0 0 0 0 0 0 0 0 0 0 0 0 0 0 0 0 0
0 0 0 0 0 0 0 0 0 0 0 0 0 0 0 0 0 0 0 0 0 0 0 0 0 0 0 0 0 0 0 0 0 0 0 0 0 0
0 0 0 0 0 0 0 0 0 0 0 0 0 0 0 0 0 0 0 0 0 0 0 0 0 0 0 0 0 0 0 0 0 0 0 0 0 0
0 0 0 0 0 0 0 0 0 0 0 0 0 0 0 0 0 0 0 0 0 0 0 0 0 0 0 0 0 0 0 0 0 0 0 0 0 0
0 0 0 0 0 0 0 0 0 0 0 0 0 0 0 0 0 0 0 0 0 0 0 0 0 0 0 0 0 0 0 0 0 0 0 0 0 0
0 0 0 0 0 0 0 0 0 0 0 0 0 0 0 0 0 0 0 0 0 0 0 0 0 0 0 0 0 0 0 0 0 0 0 0 0 0
0 0 0 0 0 0 0 0 0 0 0 0 0 0 0 0 0 0 0 0 0 0 0 0 0 0 0 0 0 0 0 0 0 0 0 0 0 0
0 0 0 0 0 0 0 0 0 0 0 0 0 0 0 0 0 0 0 0 0 0 0 0 0 0 0 0 0 0 0 0 0 0 0 0 0 0
0 0 0 0 0 0 0 0 0 0 0 0 0 0 0 0 0 0 0 0 0 0 0 0 0 0 0 0 0 0 0 0 0 0 0 0 0 0
0 0 0 0 0 0 0 0 0 0 0 0 0 0 0 0 0 0 0 0 0 0 0 0 0 0 0 0 0 0 0 0 0 0 0 0 0 0
0 0 0 0 0 0 0 0 0 0 0 0 0 0 0 0 0 0 0 0 0 0 0 0 0 0 0 0 0 0 0 0 0 0 0 0 0 0
0 0 0 0 0 0 0 0 0 0 0 0 0 0 0 0 0 0 0 0 0 0 0 0 0 0 0 0 0 0 0 0 0 0 0 0 0 0
0 0 0 0 0 0 0 0 0 0 0 0 0 0 0 0 0 0 0 0 0 0 0 0 0 0 0 0 0 0 0 0 0 0 0 0 0 0
0 0 0 0 0 0 0 0 0 0 0 0 0 0 0 0 0 0 0 0 0 0 0 0 0 0 0 0 0 0 0 0 0 0 0 0 0 0
0 0 0 0 0 0 0 0 0 0 0 0 0 0 0 0 0 0 0 0 0 0 0 0 0 0 0 0 0 0 0 0 0 0 0 0 0 0
0 0 0 0 0 0 0 0 0 0 0 0 0 0 0 0 0 0 0 0 0 0 0 0 0 0 0 0 0 0 0 0 0 0 0 0 0 0
Wind_Speed
3 3 3 3 3 3 3 4 5 8 8 4 4 4 4 4 8 6 7 12 15 16 17 18 18 18 18 18 18 18 19 18 18 17 17 17 18 18
3 3 4 3 3 3 3 4 4 6 8 6 5 5 6 7 10 8 8 14 14 16 17 18 18 19 19 19 18 19 19 19 19 19 17 17 17 18
4 4 4 4 4 4 3 3 4 4 8 8 5 5 6 7 7 7 7 8 8 14 17 19 19 19 18 18 18 19 19 20 19 19 18 17 17 17
4 4 5 5 5 4 4 4 4 5 6 10 8 6 7 7 7 8 8 8 8 14 17 19 19 19 18 18 18 18 19 19 18 19 18 16 16 16
4 5 5 5 5 5 5 5 5 6 5 7 9 7 6 6 7 8 9 7 9 12 15 16 18 19 18 18 18 18 18 17 17 17 17 16 16 16
4 4 5 5 5 5 5 5 6 6 6 7 8 7 7 6 6 7 8 6 8 9 12 14 16 18 18 19 18 18 17 17 17 17 17 16 15 16
4 4 5 6 7 7 6 6 6 6 6 6 7 8 7 7 7 7 9 9 8 6 7 8 9 8 9 13 15 17 17 17 17 17 17 16 16 16
5 5 5 5 7 10 11 11 10 8 8 7 7 8 9 8 8 8 9 9 9 5 7 9 7 8 8 6 13 18 17 17 17 17 17 17 16 16
5 5 5 5 6 6 9 11 10 11 12 9 9 9 10 9 9 10 10 10 10 9 9 10 7 8 8 10 18 18 18 17 17 18 18 17 16 14
5 5 6 6 7 8 8 8 7 7 9 7 7 8 8 8 8 10 10 11 10 7 7 10 9 9 9 8 14 17 17 17 18 18 17 17 16 14
5 5 6 6 10 12 9 9 9 8 9 11 12 12 14 15 12 8 7 8 9 7 5 7 8 9 9 8 8 14 17 18 18 17 17 17 16 13
5 5 7 9 11 12 8 8 9 9 8 8 9 10 9 10 12 7 6 7 8 8 5 6 7 7 8 6 6 7 9 14 17 17 17 16 16 8
5 5 5 11 13 13 11 7 10 10 7 7 7 7 6 5 5 5 5 6 7 8 6 6 7 6 7 9 8 6 6 7 8 10 13 15 15 11
6 5 6 12 13 13 10 11 13 11 5 5 5 6 6 5 5 6 6 6 7 9 9 7 7 7 8 9 9 7 6 6 7 7 7 11 11 13
5 9 11 12 12 9 10 12 9 5 4 5 5 6 6 6 6 6 6 6 7 7 7 7 7 7 7 8 9 8 8 7 6 7 7 7 6 7
5 6 9 10 9 8 7 6 4 4 4 5 5 5 5 5 5 5 6 6 6 6 5 6 7 8 8 9 8 9 8 7 7 8 7 7 6 5
5 3 3 4 4 4 4 4 4 4 4 4 5 6 6 6 6 5 5 5 5 7 8 6 6 6 8 8 7 8 7 7 7 7 7 7 6 6
5 3 4 4 4 5 5 5 4 4 4 5 5 5 6 6 6 5 5 5 6 7 7 7 7 7 6 5 6 7 6 6 7 7 6 7 8 6
3 3 4 4 4 4 4 4 5 5 4 4 5 5 5 5 5 6 5 5 6 7 7 6 5 5 7 9 7 5 6 7 7 6 6 6 8 9
2 3 4 4 4 4 4 4 5 5 4 4 5 5 5 5 5 5 5 6 7 7 7 6 5 5 6 8 8 8 10 8 6 7 7 6 7 10
3 4 4 4 5 4 4 4 5 5 5 5 4 5 4 4 5 5 6 7 6 6 7 7 6 8 6 5 6 8 7 9 11 8 8 7 7 6
4 4 4 5 5 4 4 4 4 4 5 4 4 4 4 4 5 6 6 6 6 6 8 7 7 6 4 5 7 9 9 9 10 13 12 10 6 6
4 5 5 4 4 4 4 4 5 5 4 4 4 4 4 4 5 5 5 5 5 6 7 7 6 5 5 5 6 7 10 10 8 8 7 11 14 14
Wind_Direction
328 325 320 316 314 313 311 304 299 301 302 305 316 321 323 321 321 320 317 320 317 315 314 312 311 311 308 306 306 304 304 302 302 299 298 298 297 296
321 322 320 315 315 318 311 308 299 292 293 304 310 316 324 321 320 318 313 315 311 311 310 309 309 308 307 306 306 305 305 304 302 301 298 297 296 295
324 326 325 323 318 318 316 313 306 298 290 297 305 315 316 314 313 312 309 304 304 308 308 308 307 307 307 306 306 305 304 302 301 302 298 298 297 296
327 325 321 321 319 317 317 314 308 302 292 296 303 311 310 312 312 313 313 311 307 307 308 309 309 307 307 306 304 304 303 302 301 302 300 297 296 296
320 319 318 319 318 319 319 314 310 310 303 296 299 306 306 309 309 308 306 304 307 310 311 309 308 308 307 307 307 306 304 303 303 303 302 300 300 299
318 317 317 315 312 313 312 309 307 305 302 297 297 301 303 304 304 308 309 306 305 307 308 310 309 308 307 305 305 303 301 299 301 302 301 299 299 300
315 314 313 313 313 313 310 310 309 303 301 299 297 300 303 310 310 309 307 307 299 300 304 304 306 303 302 300 302 303 301 303 305 304 302 299 298 298
307 305 302 301 312 314 311 310 307 303 301 297 294 296 301 306 309 307 307 308 303 311 312 303 301 299 301 295 305 310 308 307 307 306 304 300 298 296
302 303 306 311 309 305 305 305 305 303 299 294 293 294 298 304 305 303 302 301 298 306 308 299 300 296 298 302 306 307 310 311 312 309 307 304 301 300
300 299 301 304 307 309 305 302 298 299 299 297 291 293 298 302 299 299 302 301 295 296 302 295 300 300 302 299 303 307 313 315 314 311 310 311 307 304
306 305 303 300 305 310 308 306 306 305 308 305 303 304 306 309 310 308 306 304 300 301 307 296 301 306 299 293 301 314 316 317 318 315 314 314 313 309
306 305 302 303 306 310 308 304 303 307 311 313 310 309 308 307 312 307 301 297 298 298 310 308 302 313 304 296 307 315 314 314 319 321 321 318 320 314
301 303 304 308 310 311 312 306 303 308 308 308 306 306 306 305 306 305 302 294 292 288 299 308 299 302 291 299 303 305 309 315 316 315 318 318 320 317
295 297 299 306 310 312 312 310 312 313 307 304 302 304 306 307 309 309 303 296 283 283 291 295 290 296 297 295 296 304 309 311 312 311 312 315 316 315
296 297 304 309 314 315 317 317 317 310 302 298 297 299 301 301 304 304 302 297 291 287 290 292 290 292 287 286 292 300 308 310 309 312 313 313 313 314
304 303 306 309 312 316 317 317 317 311 303 296 297 299 302 302 302 304 306 311 307 300 294 294 294 289 286 285 286 292 299 301 312 313 311 310 311 308
314 311 308 311 312 311 313 314 313 314 309 306 304 305 305 304 303 307 306 308 302 304 310 311 305 296 282 281 284 286 293 296 302 311 313 310 307 305
319 305 301 302 302 305 308 309 308 306 306 307 304 302 302 303 305 308 304 302 301 302 305 312 319 317 307 283 268 284 293 298 306 310 308 306 305 308
308 291 289 291 293 295 295 296 297 299 300 298 298 299 301 302 304 305 307 305 302 302 304 308 314 318 315 310 301 305 307 307 309 307 304 298 295 301
280 279 281 284 286 287 288 291 294 297 294 292 292 293 296 299 300 299 300 301 303 305 306 306 306 305 295 292 296 299 305 299 301 302 303 298 287 293
277 276 277 279 282 281 282 285 288 290 290 289 288 289 291 294 293 293 295 297 299 301 302 301 300 302 294 291 290 292 296 308 310 302 302 302 302 300
275 273 274 273 276 276 277 279 284 286 288 285 285 286 287 287 289 290 291 296 296 295 296 298 303 305 299 291 292 297 304 311 314 313 306 296 293 296
272 273 274 277 275 273 274 276 277 279 279 282 285 284 285 285 286 286 289 292 294 297 301 304 308 306 297 291 292 296 305 312 316 319 312 314 309 296